Location: Rock Island IL
(41.5000°N, 90.5500°W)
Time: 17:33:15
(UTC-06:00)

N. Korean satellite - Visible Passes

Search period start: 20 February 2018 00:00
Search period end: 02 March 2018 00:00
Orbit: 459 x 514 km, 97.2° (Epoch: 20 February)

Date Brightness Start Highest point End Pass type
(mag) Time Alt. Az. Time Alt. Az. Time Alt. Az.
20 Feb 9.4 06:02:50 10° NE 06:05:52 24° E 06:08:55 10° SSE visible
20 Feb 7.5 18:12:02 10° S 18:15:22 51° W 18:18:47 10° NNW visible
21 Feb 10.3 05:40:16 10° ENE 05:41:59 13° E 05:43:42 10° ESE visible
22 Feb 10.1 18:59:56 10° WSW 19:01:37 13° W 19:03:17 10° WNW visible
23 Feb 9.1 18:34:47 10° SSW 18:37:42 25° W 18:40:39 10° NW visible
24 Feb 9.5 06:01:21 10° NE 06:04:24 24° E 06:07:26 10° SSE visible
24 Feb 7.5 18:10:29 10° S 18:13:51 53° W 18:17:18 10° NNW visible
25 Feb 10.4 05:38:49 10° ENE 05:40:29 13° E 05:42:08 10° ESE visible
26 Feb 10.1 18:58:14 10° WSW 19:00:03 14° W 19:01:54 10° WNW visible
27 Feb 9.1 18:33:09 10° SSW 18:36:08 26° W 18:39:10 10° NW visible
28 Feb 9.6 05:59:50 10° NE 06:02:52 23° E 06:05:53 10° SSE visible
01 Mar 10.5 05:37:22 10° ENE 05:38:56 12° E 05:40:30 10° ESE visible
